Wind_Speed
40 37 36 40 43 46 48 46 38 36 30 18 19 16 10 12 14 16 14 10 7 4 15 22 20 21 24 16 16 15 23 20 20 21 20 19 19 17 14 18 17 17 17 16 17 17 18
40 39 36 39 42 44 45 45 40 35 35 30 26 21 13 17 20 18 14 11 11 8 13 25 22 20 25 20 25 15 23 23 21 21 22 23 23 20 18 17 18 17 18 15 16 17 19
40 40 37 38 41 42 43 42 39 35 32 31 30 25 20 22 18 14 12 9 10 11 11 27 24 17 29 22 17 20 19 22 21 23 21 19 20 20 14 14 12 13 12 12 14 16 19
41 39 37 37 38 39 39 40 38 36 37 33 28 29 29 22 20 17 13 9 10 14 13 25 25 20 25 12 15 19 19 23 20 18 20 20 18 17 14 11 9 12 10 7 10 12 15
42 38 36 36 37 37 36 37 35 32 33 32 33 37 42 36 32 25 26 19 18 21 16 19 25 21 19 21 18 18 16 15 13 11 14 15 14 14 12 10 5 5 2 5 8 11 13
44 38 36 35 36 35 32 33 32 30 27 30 28 31 35 38 38 39 32 22 25 20 16 17 21 16 15 14 14 10 10 6 8 11 11 13 12 11 11 9 4 3 7 8 6 13 14
45 39 35 34 33 34 29 29 30 27 26 25 23 28 29 25 27 31 34 45 41 42 38 30 21 19 13 7 7 12 9 8 9 9 8 10 9 6 9 13 11 9 7 6 6 14 19
44 40 35 33 31 31 29 26 27 28 27 22 20 24 27 26 25 28 29 40 38 35 35 28 28 27 19 17 17 15 14 19 16 10 12 12 9 11 9 8 9 9 5 2 10 10 14
45 41 36 33 30 29 28 24 23 22 24 22 18 20 22 25 24 22 18 23 26 30 34 28 23 21 18 18 16 16 20 17 12 11 9 8 6 4 5 4 3 2 3 6 7 14 7
46 42 37 32 29 27 27 25 20 19 17 18 18 17 18 14 16 17 18 17 12 13 16 25 15 14 17 17 15 13 12 15 11 10 12 5 4 6 5 3 3 2 8 7 6 11 3
48 41 38 33 29 25 24 25 24 18 16 13 13 14 14 14 12 15 15 12 12 9 6 10 18 15 17 13 12 10 9 11 11 11 7 4 5 5 6 3 4 2 7 7 8 8 12
47 44 39 34 30 25 22 22 23 23 18 15 12 11 12 11 12 14 12 12 10 6 7 8 16 18 17 15 14 14 13 11 10 10 6 4 2 1 5 2 4 7 4 2 3 4 3
43 46 41 37 30 28 21 20 20 22 22 21 17 13 10 13 13 14 12 8 10 10 3 8 9 12 11 13 12 12 11 6 6 5 5 5 4 3 2 5 2 4 5 3 3 2 3
38 42 42 39 32 28 24 18 18 18 21 22 22 24 20 18 19 18 18 21 16 10 12 15 11 11 10 10 13 12 8 6 5 6 4 4 0 2 2 4 0 1 3 1 3 3 3
35 38 41 39 34 27 26 20 15 15 16 18 20 19 21 21 21 20 19 27 9 6 6 8 11 8 8 9 6 7 8 9 6 3 4 1 3 2 2 2 2 2 1 2 4 8 4
31 33 37 39 37 30 25 23 16 12 13 14 15 16 17 17 16 16 20 23 12 13 13 14 6 8 5 4 6 4 4 5 3 8 4 1 1 5 2 4 5 4 4 3 4 3 4
29 31 33 36 37 33 28 24 20 12 10 11 11 14 15 15 13 15 24 21 15 13 10 9 7 5 5 4 6 4 3 4 7 5 3 4 1 3 5 1 3 5 4 5 6 6 2
25 27 29 32 34 34 30 25 23 17 9 8 9 8 12 13 10 15 16 15 13 11 10 9 8 9 4 5 4 4 3 5 8 10 4 6 3 4 2 5 6 9 9 8 5 2 7
21 24 25 27 30 32 32 28 23 21 14 7 6 7 8 10 10 12 11 11 10 9 8 9 6 6 6 6 4 7 7 8 8 9 8 9 5 6 1 3 9 9 11 9 10 14 14
20 20 22 24 26 28 29 29 26 21 18 11 6 3 5 6 7 8 7 7 6 6 6 6 5 5 5 8 6 5 6 6 8 7 7 9 6 8 8 7 8 14 14 17 13 9 14
20 19 19 21 23 25 26 27 27 24 19 15 9 5 3 4 3 3 3 2 3 3 2 2 3 3 4 3 3 4 7 8 10 8 10 10 10 12 17 24 25 24 24 25 31 27 17
19 20 19 19 21 22 25 26 24 24 21 16 11 9 7 5 4 3 3 2 2 3 3 3 4 5 6 7 8 9 12 10 9 14 13 17 11 19 26 15 16 23 32 28 34 35 36
21 19 18 19 20 22 22 24 24 22 22 18 16 11 9 8 7 8 7 6 5 6 6 6 7 8 9 10 11 13 16 16 18 20 19 17 17 16 14 16 25 22 6 15 20 29 31
22 20 19 19 19 20 22 21 23 23 21 20 16 15 12 9 9 11 11 11 11 12 13 11 10 12 11 15 17 18 19 18 19 19 20 20 14 11 16 12 3 5 20 26 22 25 21
24 23 21 18 19 20 21 21 20 22 22 20 19 15 14 14 11 11 12 14 16 16 16 17 16 17 17 19 21 17 17 17 14 16 14 15 14 9 6 6 23 19 5 8 13 12 14
25 25 24 22 21 20 21 22 22 19 20 21 19 18 16 14 11 15 13 10 14 17 20 20 19 19 19 19 16 7 5 9 6 8 10 11 11 13 6 5 5 7 14 20 21 19 16
28 27 28 26 24 23 21 21 23 23 20 19 20 18 18 16 10 14 17 16 14 15 17 18 17 19 20 19 16 12 11 13 8 7 9 11 14 21 22 11 14 19 19 17 6 10 11
30 29 28 30 31 26 24 22 21 24 22 18 20 21 17 17 16 11 13 17 15 16 16 17 17 14 13 12 9 10 11 11 13 14 13 12 8 11 10 10 13 5 10 15 21 26 29
27 25 26 27 29 29 28 26 25 25 24 20 16 21 24 19 18 17 19 20 15 15 18 21 19 18 10 8 10 9 13 15 21 15 15 16 19 12 14 10 21 22 26 31 34 33 35
Wind_Direction
15 14 13 13 9 9 10 9 8 8 24 44 34 39 53 46 62 74 68 60 63 144 171 193 185 194 210 214 191 176 185 185 187 184 183 185 179 176 195 206 208 219 226 234 247 255 261
17 16 15 16 12 13 14 16 24 35 41 42 44 48 66 57 70 67 61 52 59 116 155 171 159 192 205 202 199 180 182 181 180 183 181 178 174 180 185 201 202 213 235 240 247 257 265
17 18 17 18 15 15 19 23 32 40 45 54 56 66 73 78 67 64 59 54 75 116 120 153 167 157 181 167 166 163 173 178 178 176 180 187 187 188 197 209 217 222 230 238 247 257 268
17 20 18 20 18 18 22 29 36 53 57 57 59 67 70 60 51 52 46 61 87 101 109 151 174 145 136 148 169 144 151 152 162 171 175 180 187 194 192 193 201 220 235 251 268 266 266
18 21 18 21 20 22 23 33 38 53 56 55 71 68 64 59 55 44 65 67 87 109 108 116 121 158 103 146 160 140 122 113 133 157 177 181 186 190 187 189 188 203 193 221 281 278 281
19 21 19 22 22 23 26 34 40 46 48 60 73 65 68 65 71 61 62 77 97 110 98 120 99 99 113 126 122 150 190 161 132 154 161 170 173 176 177 163 108 199 207 245 243 294 282
21 21 23 21 25 23 28 33 41 44 50 60 69 64 71 72 60 66 80 82 94 73 77 84 88 103 118 125 137 138 158 177 175 159 149 151 132 155 157 183 189 188 209 257 264 261 288
22 21 23 22 24 24 26 33 43 48 54 64 63 68 73 76 73 64 75 73 77 88 76 74 80 88 95 110 119 133 144 139 136 139 132 131 149 205 202 199 212 224 244 325 286 290 300
22 20 23 24 24 24 24 29 40 49 54 60 62 60 69 84 79 63 54 59 71 72 74 72 71 78 83 88 108 131 135 130 115 125 103 176 201 194 175 196 192 330 270 268 278 288 331
22 21 19 24 22 26 23 28 33 42 55 58 62 62 59 65 80 51 40 36 44 69 65 47 46 59 78 87 87 104 129 135 139 145 134 163 151 155 154 150 163 168 248 271 300 307 239
18 24 20 21 24 22 25 24 34 34 38 55 50 55 50 76 67 42 19 20 39 44 66 27 45 56 68 84 106 84 108 130 138 136 129 129 133 135 85 212 166 276 274 275 288 298 302
17 20 22 21 25 22 27 26 31 37 34 35 44 45 51 46 30 23 43 56 49 70 51 35 58 53 57 73 80 85 86 101 102 107 110 117 108 151 195 238 213 244 305 326 272 283 256
17 16 20 22 23 25 26 27 29 38 39 38 37 35 37 38 27 35 45 77 66 55 33 29 46 70 53 56 64 73 62 73 100 88 104 85 72 98 120 87 9 26 11 216 259 271 236
18 18 16 21 26 25 26 27 28 33 41 40 41 44 48 53 48 56 81 84 63 63 74 62 63 54 53 75 63 56 70 44 64 92 82 76 36 161 99 145 234 76 359 91 279 345 326
14 17 18 16 23 26 28 24 28 29 37 40 40 44 52 62 65 69 81 76 91 101 91 77 61 51 39 52 70 65 44 52 63 130 114 217 166 240 225 213 211 254 312 227 306 302 282
9 15 18 16 20 24 28 27 22 28 31 41 45 45 54 57 61 74 80 81 85 92 100 65 58 54 53 40 58 57 52 32 10 45 111 67 147 245 268 271 249 232 280 241 215 276 270
4 9 16 17 15 24 25 29 24 20 20 35 41 48 52 58 67 74 79 88 88 81 74 80 95 70 46 50 41 35 21 1 12 27 51 47 165 285 286 256 270 246 258 227 234 242 283
358 3 10 14 17 17 23 23 25 19 17 27 42 42 57 53 59 68 78 85 86 86 77 77 69 73 80 46 37 23 8 357 4 4 24 332 300 280 229 262 269 257 271 250 225 226 238
353 356 1 8 14 16 17 22 23 20 14 8 37 30 36 57 56 64 73 76 75 70 74 73 76 58 44 46 62 6 352 351 358 359 354 344 351 340 360 311 294 266 281 272 272 255 258
342 349 353 359 7 12 16 17 21 20 16 7 357 24 20 31 53 59 52 65 71 68 65 58 55 41 40 17 5 354 360 346 333 320 328 326 290 252 259 279 282 270 266 279 263 227 251
332 338 345 351 357 3 8 15 14 17 16 9 357 348 346 345 359 18 53 36 34 42 23 35 25 11 8 72 1 328 329 336 338 322 312 319 304 303 293 304 293 273 266 254 255 261 236
324 329 336 341 347 354 358 3 12 11 14 7 360 350 324 287 263 290 289 275 302 316 307 318 310 320 313 309 325 314 321 322 312 313 307 310 297 309 308 324 309 292 294 276 249 259 271
317 322 327 334 339 344 351 353 359 4 5 7 360 348 344 310 280 261 263 265 265 268 273 277 289 295 300 305 303 303 304 304 294 288 283 273 288 303 292 302 301 296 352 325 265 256 258
309 314 322 327 331 335 339 345 350 353 353 356 358 347 336 324 310 280 263 261 261 262 269 273 276 283 288 295 297 296 298 295 290 283 273 268 262 277 284 315 304 277 301 303 286 278 268
302 307 312 318 323 327 331 333 340 343 344 341 348 344 335 326 308 296 284 268 259 261 263 267 274 279 291 293 301 305 305 298 293 280 267 265 248 261 263 268 289 299 254 327 324 308 263
295 300 306 310 313 315 321 323 325 330 334 332 329 337 331 323 321 304 291 287 281 273 268 266 268 275 281 286 295 282 264 282 287 285 270 261 248 229 233 251 260 270 284 298 305 280 274
290 297 300 302 304 304 309 312 314 317 319 322 317 319 327 321 314 305 303 291 282 281 278 279 282 276 273 273 270 265 265 256 261 248 272 254 252 244 251 254 268 281 283 286 263 299 295
285 291 294 301 299 294 294 296 302 307 306 310 311 306 312 318 314 308 291 297 291 283 279 280 290 282 264 245 238 247 255 251 257 259 264 266 249 234 227 232 259 265 267 271 298 298 296
278 284 294 297 298 293 290 289 294 297 297 296 301 302 305 308 313 301 297 284 282 291 279 273 266 272 266 252 245 240 245 261 275 275 274 256 242 242 234 259 273 284 289 294 297 295 295
Height
3092 3085 3079 3071 3063 3053 3043 3031 3021 3011 3004 3001 3001 2999 2999 2998 2997 2996 2997 2998 2999 2998 3001 3005 3011 3016 3018 3025 3033 3039 3044 3049 3056 3061 3065 3071 3076 3079 3084 3086 3093 3095 3097 3100 3102 3104 3104
3094 3087 3081 3073 3065 3056 3046 3036 3026 3016 3011 3008 3006 3004 3004 3003 3003 3002 3001 3000 2999 3000 3002 3007 3014 3018 3023 3031 3035 3040 3045 3049 3055 3060 3065 3069 3072 3077 3081 3085 3089 3091 3095 3098 3100 3101 3102
3095 3089 3082 3075 3067 3059 3051 3043 3033 3025 3019 3015 3013 3011 3010 3009 3008 3007 3005 3003 3003 3003 3006 3008 3014 3016 3022 3033 3037 3041 3045 3049 3055 3059 3064 3069 3072 3076 3080 3085 3088 3091 3094 3095 3096 3098 3098
3097 3092 3085 3078 3071 3063 3056 3048 3041 3032 3028 3026 3023 3020 3018 3017 3014 3011 3009 3007 3007 3008 3010 3014 3017 3023 3028 3034 3039 3042 3045 3050 3056 3061 3065 3069 3073 3077 3081 3085 3087 3090 3092 3093 3094 3095 3096
3100 3094 3088 3082 3074 3068 3060 3054 3047 3040 3035 3032 3030 3028 3023 3020 3020 3017 3013 3011 3012 3015 3016 3019 3024 3028 3034 3038 3041 3046 3049 3052 3060 3064 3068 3071 3074 3078 3081 3084 3087 3088 3090 3091 3092 3093 3093
3104 3097 3090 3084 3078 3072 3066 3059 3054 3049 3044 3039 3037 3034 3029 3030 3027 3025 3023 3018 3018 3022 3024 3027 3031 3037 3040 3044 3046 3048 3053 3057 3062 3066 3070 3072 3075 3078 3080 3083 3086 3087 3089 3090 3091 3090 3090
3108 3101 3094 3088 3082 3076 3071 3065 3060 3055 3049 3047 3044 3042 3040 3038 3037 3034 3033 3029 3029 3031 3031 3035 3038 3040 3043 3047 3049 3053 3055 3060 3063 3068 3070 3073 3077 3079 3080 3082 3084 3086 3088 3088 3089 3089 3087
3112 3104 3098 3091 3086 3080 3075 3071 3066 3062 3057 3053 3051 3049 3047 3045 3044 3043 3043 3037 3037 3040 3040 3044 3045 3046 3049 3049 3052 3055 3058 3063 3065 3068 3072 3076 3077 3077 3080 3082 3084 3086 3087 3088 3087 3086 3086
3118 3109 3102 3095 3089 3084 3079 3075 3071 3068 3064 3060 3057 3055 3053 3051 3051 3051 3048 3047 3047 3048 3046 3051 3052 3052 3053 3055 3056 3058 3061 3064 3068 3071 3074 3075 3078 3079 3080 3082 3083 3085 3086 3087 3087 3084 3084
3122 3114 3106 3099 3093 3087 3083 3078 3075 3072 3068 3065 3063 3060 3059 3057 3056 3055 3053 3052 3051 3051 3053 3061 3059 3061 3060 3060 3063 3064 3066 3068 3070 3073 3074 3077 3078 3079 3081 3082 3084 3087 3085 3085 3085 3083 3083
3127 3118 3111 3104 3097 3091 3086 3083 3079 3075 3071 3068 3066 3064 3061 3059 3059 3058 3058 3055 3054 3054 3060 3070 3068 3067 3065 3066 3068 3068 3069 3071 3071 3074 3077 3078 3078 3080 3081 3084 3084 3086 3084 3084 3083 3083 3081
3131 3123 3115 3108 3102 3095 3090 3087 3083 3078 3074 3072 3069 3067 3065 3065 3064 3061 3058 3058 3058 3061 3071 3075 3073 3072 3071 3070 3071 3072 3072 3074 3074 3076 3077 3078 3079 3080 3081 3082 3083 3083 3083 3081 3082 3082 3080
3135 3128 3120 3112 3105 3100 3094 3090 3087 3083 3079 3076 3073 3070 3068 3066 3065 3063 3061 3060 3061 3067 3078 3079 3076 3076 3076 3075 3074 3075 3076 3076 3076 3079 3079 3079 3080 3081 3081 3083 3082 3082 3082 3082 3081 3080 3078
3138 3131 3124 3117 3109 3103 3098 3094 3091 3088 3084 3081 3078 3074 3071 3068 3067 3066 3067 3065 3066 3078 3079 3080 3079 3079 3078 3078 3079 3079 3079 3079 3078 3079 3080 3082 3083 3082 3082 3083 3083 3083 3082 3083 3082 3079 3075
3140 3134 3128 3121 3114 3107 3101 3097 3095 3092 3089 3086 3084 3081 3078 3075 3073 3073 3073 3066 3076 3080 3081 3082 3081 3083 3081 3081 3082 3082 3082 3081 3080 3080 3084 3083 3083 3082 3082 3082 3084 3082 3082 3083 3082 3078 3078
3141 3136 3131 3124 3118 3111 3105 3100 3097 3095 3093 3090 3089 3087 3083 3081 3079 3078 3076 3074 3079 3081 3082 3083 3085 3085 3085 3084 3084 3084 3085 3085 3083 3082 3081 3082 3083 3082 3082 3082 3082 3081 3082 3082 3082 3081 3073
3142 3138 3133 3127 3121 3114 3109 3104 3099 3096 3096 3094 3092 3091 3089 3086 3084 3083 3079 3080 3083 3084 3084 3084 3085 3087 3088 3087 3087 3087 3087 3086 3084 3083 3082 3081 3083 3083 3081 3079 3079 3079 3078 3079 3080 3078 3075
3142 3138 3134 3129 3124 3117 3111 3107 3103 3099 3097 3096 3094 3094 3092 3090 3090 3087 3085 3085 3086 3086 3086 3085 3087 3087 3088 3088 3089 3088 3088 3086 3085 3084 3083 3082 3081 3079 3080 3079 3078 3077 3076 3077 3078 3076 3074
3141 3138 3134 3130 3126 3120 3114 3109 3105 3102 3099 3098 3096 3096 3095 3093 3092 3091 3091 3090 3090 3089 3088 3087 3088 3088 3088 3088 3089 3088 3087 3087 3086 3085 3084 3083 3081 3080 3079 3081 3078 3077 3076 3076 3076 3075 3072
3140 3137 3134 3131 3126 3122 3117 3111 3107 3104 3101 3099 3098 3097 3097 3095 3094 3093 3092 3092 3092 3091 3091 3090 3090 3089 3088 3089 3088 3088 3087 3086 3085 3084 3084 3083 3081 3081 3080 3078 3078 3075 3074 3072 3072 3072 3067
3137 3136 3133 3130 3127 3123 3119 3113 3109 3105 3102 3101 3099 3097 3096 3096 3095 3095 3094 3094 3093 3092 3091 3091 3091 3090 3090 3089 3088 3087 3086 3085 3083 3083 3082 3082 3079 3078 3076 3073 3071 3068 3068 3068 3060 3060 3059
3135 3133 3132 3129 3126 3122 3119 3115 3110 3106 3103 3101 3099 3096 3095 3095 3094 3094 3095 3094 3093 3093 3092 3091 3091 3091 3090 3090 3090 3088 3086 3084 3083 3080 3080 3077 3076 3073 3067 3067 3065 3061 3059 3058 3056 3055 3050
3131 3130 3128 3127 3125 3122 3118 3115 3112 3107 3103 3100 3099 3097 3095 3094 3093 3093 3092 3093 3093 3092 3092 3091 3090 3089 3089 3089 3087 3086 3085 3084 3082 3079 3077 3076 3073 3070 3063 3063 3059 3052 3048 3047 3046 3048 3048
3127 3126 3125 3124 3122 3120 3118 3114 3111 3108 3104 3101 3097 3096 3094 3093 3091 3091 3091 3090 3090 3090 3090 3089 3088 3087 3087 3085 3084 3083 3081 3078 3075 3073 3072 3071 3071 3070 3062 3060 3059 3047 3044 3043 3041 3041 3040
3122 3121 3120 3119 3118 3117 3115 3113 3109 3106 3104 3101 3097 3095 3092 3091 3090 3088 3087 3087 3087 3087 3087 3086 3086 3085 3084 3083 3080 3077 3075 3072 3069 3067 3066 3066 3068 3067 3064 3059 3049 3039 3040 3040 3038 3037 3034
3116 3116 3115 3114 3113 3112 3110 3110 3108 3103 3100 3100 3096 3092 3090 3089 3088 3087 3084 3084 3084 3082 3082 3081 3081 3081 3081 3080 3079 3078 3076 3073 3070 3066 3064 3064 3064 3065 3060 3059 3050 3038 3038 3037 3035 3030 3028
3110 3110 3109 3108 3108 3107 3105 3103 3103 3101 3097 3095 3094 3091 3087 3085 3084 3083 3083 3081 3079 3079 3077 3076 3076 3075 3074 3074 3075 3075 3072 3071 3068 3064 3061 3061 3059 3057 3057 3054 3039 3033 3032 3032 3033 3031 3026
3102 3102 3102 3101 3101 3101 3099 3098 3096 3096 3094 3090 3089 3088 3085 3082 3081 3079 3079 3078 3077 3076 3075 3074 3074 3070 3069 3068 3068 3068 3066 3065 3062 3060 3057 3056 3054 3050 3049 3048 3035 3029 3029 3031 3028 3024 3022
3093 3094 3094 3094 3094 3093 3093 3092 3090 3088 3088 3086 3083 3082 3082 3080 3078 3075 3074 3073 3073 3072 3072 3069 3070 3069 3068 3067 3065 3062 3059 3057 3056 3053 3052 3052 3049 3046 3042 3032 3028 3027 3025 3023 3021 3018 3016